Weather History for KPZQ - May, 2014

Change the Weather History Date:

Thursday, May 29, 2014

  Actual Average (KAPN) Record (KAPN)
Temperature  
Mean Temperature 54 °F 57 °F  
Max Temperature 68 °F 69 °F 92 °F (2006)
Min Temperature 41 °F 44 °F 29 °F (2004)
Degree Days  
Heating Degree Days 10 9  
Month to date heating degree days 381  
Since 1 July heating degree days 7940  
Cooling Degree Days 0 1  
Month to date cooling degree days 6  
Year to date cooling degree days 8  
Growing Degree Days 4 (Base 50)    
Moisture  
Dew Point 50 °F    
Average Humidity 81    
Maximum Humidity 100    
Minimum Humidity 56    
Precipitation  
Precipitation 0.00 in 0.09 in 1.70 in (1954)
Month to date precipitation 2.48  
Year to date precipitation 9.71  
Sea Level Pressure  
Sea Level Pressure 30.17 in    
Wind  
Wind Speed 2 mph (ENE)    
Max Wind Speed 12 mph    
Max Gust Speed 16 mph    
Visibility 10 miles    
Events      
T = Trace of Precipitation, MM = Missing Value Source: NWS Daily Summary

Daily Weather History Graph

Daily Weather History Graph

Search for Another Location

Airport or City:

Trip Planner

Search our weather history database for the weather conditions in past years. The results will help you decide how hot, cold, wet, or windy it might be!

Date:

Astronomy

May. 29, 2014 Rise Set
Actual Time 5:52 AM EDT 9:13 PM EDT
Civil Twilight 5:15 AM EDT 9:50 PM EDT
Nautical Twilight 4:28 AM EDT 10:38 PM EDT
Astronomical Twilight 3:28 AM EDT 11:38 PM EDT
Moon 6:47 AM EDT (5/29) 10:00 PM EDT (5/29)
Length of Visible Light 16h 34m
Length of Day
15h 21m
New Moon, 1% of the Moon is Illuminated
May 29
New Moon
Jun 5
First Quarter
Jun 13
Full
Jun 19
Last Quarter
Jun 27
New

Hourly Weather History & Observations

Time (EDT) Temp. Dew Point Humidity Pressure Visibility Wind Dir Wind Speed Gust Speed Precip Events Conditions
12:04 AM 48.2 °F 46.4 °F 93% 30.15 in 10.0 mi Calm Calm - N/A   Clear
12:19 AM 46.4 °F 46.4 °F 100% 30.16 in 10.0 mi Calm Calm - N/A   Clear
12:40 AM 46.4 °F 46.4 °F 100% 30.15 in 10.0 mi Calm Calm - N/A   Clear
12:59 AM 46.4 °F 46.4 °F 100% 30.15 in 10.0 mi Calm Calm - N/A   Clear
1:22 AM 46.4 °F 46.4 °F 100% 30.16 in 10.0 mi Calm Calm - N/A   Clear
1:39 AM 44.6 °F 44.6 °F 100% 30.16 in 10.0 mi Calm Calm - N/A   Clear
2:01 AM 44.6 °F 44.6 °F 100% 30.16 in 7.0 mi Calm Calm - N/A   Clear
2:20 AM 44.6 °F 44.6 °F 100% 30.15 in 10.0 mi Calm Calm - N/A   Clear
2:40 AM 42.8 °F 42.8 °F 100% 30.15 in 7.0 mi Calm Calm - N/A   Clear
3:00 AM 42.8 °F 42.8 °F 100% 30.15 in 10.0 mi Calm Calm - N/A   Clear
3:20 AM 42.8 °F 42.8 °F 100% 30.16 in 10.0 mi Calm Calm - N/A   Clear
3:42 AM 42.8 °F 42.8 °F 100% 30.16 in 10.0 mi Calm Calm - N/A   Clear
4:00 AM 42.8 °F 42.8 °F 100% 30.16 in 10.0 mi Calm Calm - N/A   Clear
4:19 AM 42.8 °F 42.8 °F 100% 30.16 in 10.0 mi Calm Calm - N/A   Clear
4:41 AM 41.0 °F 41.0 °F 100% 30.16 in 10.0 mi Calm Calm - N/A   Clear
5:02 AM 41.0 °F 41.0 °F 100% 30.16 in 10.0 mi Calm Calm - N/A   Clear
5:21 AM 41.0 °F 41.0 °F 100% 30.17 in 10.0 mi Calm Calm - N/A   Clear
5:41 AM 41.0 °F 41.0 °F 100% 30.18 in 10.0 mi Calm Calm - N/A   Clear
6:01 AM 41.0 °F 41.0 °F 100% 30.18 in 10.0 mi Calm Calm - N/A   Clear
6:22 AM 41.0 °F 41.0 °F 100% 30.19 in 7.0 mi Calm Calm - N/A   Clear
6:42 AM 42.8 °F 42.8 °F 100% 30.18 in 10.0 mi Calm Calm - N/A   Clear
7:01 AM 46.4 °F 46.4 °F 100% 30.19 in 10.0 mi Calm Calm - N/A   Clear
7:20 AM 50.0 °F 48.2 °F 94% 30.19 in 10.0 mi ESE 3.5 mph - N/A   Clear
7:38 AM 50.0 °F 48.2 °F 94% 30.20 in 10.0 mi SE 3.5 mph - N/A   Clear
8:01 AM 51.8 °F 50.0 °F 94% 30.20 in 10.0 mi Calm Calm - N/A   Clear
8:20 AM 53.6 °F 51.8 °F 94% 30.20 in 10.0 mi Calm Calm - N/A   Clear
8:39 AM 57.2 °F 51.8 °F 82% 30.21 in 10.0 mi Calm Calm - N/A   Clear
8:57 AM 57.2 °F 51.8 °F 82% 30.22 in 10.0 mi ESE 4.6 mph - N/A   Clear
9:19 AM 59.0 °F 51.8 °F 77% 30.22 in 10.0 mi ESE 4.6 mph - N/A   Clear
9:39 AM 60.8 °F 53.6 °F 77% 30.22 in 10.0 mi SE 5.8 mph - N/A   Clear
10:00 AM 60.8 °F 53.6 °F 77% 30.22 in 10.0 mi ESE 4.6 mph - N/A   Clear
10:20 AM 62.6 °F 53.6 °F 72% 30.22 in 10.0 mi NNE 4.6 mph - N/A   Clear
10:39 AM 62.6 °F 53.6 °F 72% 30.22 in 10.0 mi NE 4.6 mph - N/A   Clear
11:00 AM 62.6 °F 53.6 °F 72% 30.22 in 10.0 mi North 6.9 mph - N/A   Clear
11:17 AM 62.6 °F 53.6 °F 72% 30.22 in 10.0 mi NNE 6.9 mph - N/A   Clear
11:39 AM 60.8 °F 53.6 °F 77% 30.23 in 10.0 mi NNE 6.9 mph - N/A   Clear
11:58 AM 60.8 °F 53.6 °F 77% 30.22 in 10.0 mi NE 8.1 mph - N/A   Clear
12:17 PM 60.8 °F 53.6 °F 77% 30.23 in 10.0 mi NE 8.1 mph - N/A   Clear
12:39 PM 62.6 °F 53.6 °F 72% 30.23 in 10.0 mi NE 6.9 mph - N/A   Clear
12:58 PM 62.6 °F 53.6 °F 72% 30.22 in 10.0 mi NE 6.9 mph - N/A   Clear
1:18 PM 64.4 °F 55.4 °F 73% 30.19 in 10.0 mi NE 4.6 mph - N/A   Clear
1:40 PM 66.2 °F 55.4 °F 68% 30.19 in 10.0 mi NNE 6.9 mph - N/A   Clear
2:02 PM 65.3 °F 54.9 °F 69% 30.18 in 10.0 mi NE 5.8 mph - N/A   Clear
2:15 PM 63.9 °F 54.0 °F 70% 30.18 in 10.0 mi NE 8.1 mph - N/A   Clear
2:35 PM 63.3 °F 53.8 °F 71% 30.18 in 10.0 mi NE 8.1 mph - N/A   Clear
2:55 PM 63.5 °F 53.4 °F 70% 30.18 in 10.0 mi ENE 9.2 mph - N/A   Clear
3:15 PM 64.2 °F 54.0 °F 69% 30.17 in 10.0 mi ENE 8.1 mph - N/A   Clear
3:34 PM 65.3 °F 54.5 °F 68% 30.16 in 10.0 mi ENE 10.4 mph - N/A   Clear
3:55 PM 64.6 °F 54.0 °F 68% 30.17 in 10.0 mi ENE 11.5 mph - N/A   Clear
4:15 PM 63.9 °F 53.8 °F 70% 30.17 in 10.0 mi ENE 9.2 mph 16.1 mph N/A   Clear
4:34 PM 65.1 °F 53.6 °F 66% 30.16 in 10.0 mi East 8.1 mph - N/A   Clear
5:14 PM 67.6 °F 53.8 °F 61% 30.16 in 10.0 mi ENE 6.9 mph - N/A   Clear
5:35 PM 67.6 °F 52.7 °F 59% 30.16 in 10.0 mi NE 4.6 mph - N/A   Clear
6:15 PM 68.0 °F 52.2 °F 57% 30.15 in 10.0 mi NE 5.8 mph - N/A   Clear
6:35 PM 66.7 °F 50.5 °F 56% 30.14 in 10.0 mi NE 5.8 mph - N/A   Clear
6:55 PM 66.6 °F 52.7 °F 61% 30.14 in 10.0 mi NE 4.6 mph - N/A   Clear
7:15 PM 66.0 °F 52.7 °F 62% 30.14 in 10.0 mi NE 3.5 mph - N/A   Clear
7:35 PM 65.5 °F 52.9 °F 64% 30.14 in 10.0 mi Calm Calm - N/A   Clear
7:55 PM 63.5 °F 53.1 °F 69% 30.14 in 10.0 mi Calm Calm - N/A   Clear
8:14 PM 62.1 °F 53.1 °F 72% 30.14 in 10.0 mi Calm Calm - N/A   Clear
8:35 PM 60.6 °F 53.2 °F 77% 30.14 in 10.0 mi Calm Calm - N/A   Clear
8:55 PM 60.8 °F 53.4 °F 77% 30.15 in 10.0 mi SW 3.5 mph - N/A   Clear
9:15 PM 63.1 °F 53.8 °F 71% 30.14 in 10.0 mi Calm Calm - N/A   Clear
9:35 PM 63.9 °F 53.6 °F 69% 30.15 in 10.0 mi SE 3.5 mph - N/A   Clear
9:55 PM 63.7 °F 52.7 °F 67% 30.15 in 10.0 mi SSE 3.5 mph - N/A   Clear
10:15 PM 61.9 °F 51.8 °F 69% 30.15 in 10.0 mi South 6.9 mph - N/A   Clear
10:34 PM 62.1 °F 50.9 °F 67% 30.15 in 10.0 mi SSW 6.9 mph - N/A   Clear
10:55 PM 61.9 °F 50.9 °F 67% 30.15 in 10.0 mi SSW 5.8 mph - N/A   Clear
11:15 PM 61.2 °F 51.1 °F 69% 30.15 in 10.0 mi SSW 6.9 mph - N/A   Clear
11:35 PM 61.0 °F 51.1 °F 70% 30.15 in 10.0 mi SW 8.1 mph - N/A   Clear
11:55 PM 60.8 °F 51.3 °F 71% 30.16 in 10.0 mi SSW 6.9 mph - N/A   Clear